Погода в Эльбрусском

Россия / Карачаево-Черкесская Республика     43°33′23″N   42°07′59″E
темп.,
°C
ветер,
м/с
пор.,
м/с
влажн.,
%
обл.,
%
осадки,
мм/ч
давл.,
гПа
погр.,
м
2 марта, вт
вт200:00−13ююв2280100 0.1 103026
03:00−14ююв337399 0.1 103031
06:00−15ююв33665 0.0 103129
09:00−9ю11672 0.0 1030163
12:00−5зсз12690 0.0 1028812
15:00−4зсз237115 0.0 1026818
18:00−10ю23821 0.0 102632
21:00−12ю44771 0.0 102764
3 марта, ср
ср300:00−12ю55692 0.0 1026103
03:00−12ю55692 0.0 102498
06:00−12ю567183 0.0 1023141
09:00−8ююз577192 0.1 1022423
12:00−5юз5135996 0.0 10211770
15:00−5зюз4116082 0.1 10202311
18:00−11зсз139797 0.8 1023144
21:00−13ю228894 1.5 102639
4 марта, чт
чт400:00−15ю228025 0.3 102728
03:00−14ю337812 0.3 102837
06:00−14ю33610 0.0 102936
09:00−7юз01630 0.0 1028118
12:00−4ссз21650 0.0 1026360
15:00−4ссз21740 0.0 1024395
18:00−9ююв11867 0.0 102422
21:00−10ююв33554 0.0 102535
5 марта, пт
пт500:00−10ююв33500 0.0 102437
03:00−10ююв33450 0.0 102330
06:00−10ююв33400 0.0 102227
09:00−3ю11590 0.0 102155
12:000ссз11570 0.0 1020378
15:000ссз11640 0.0 1019445
18:00−6ю33730 0.0 102028
21:00−7ююв44470 0.0 102253
6 марта, сб
сб600:00−6ю44443 0.0 102150
03:00−6ю544536 0.0 102063
06:00−6ю554246 0.0 102067
09:00−1ю345340 0.0 1018133
12:00+2ююз246374 0.0 1016471
15:00+2ююз256287 0.0 1014577
18:00−4ю4460100 0.0 101579
21:00−5ю5670100 0.0 1016151